Regional Weather Roundup
Issued by NWS Bismarck, ND

Home | Current Version | Previous Version | Text Only | Print | Product List | Glossary On
Versions: 1 2 3 4 5 6 7 8 9 10 11 12 13 14 15 16 17 18 19 20 21 22 23 24 25 26 27 28 29 30 31 32 33 34 35 36 37 38 39 40 41 42 43 44 45 46 47 48 49 50
000
ASUS43 KBIS 261610
RWRBIS

NWR BROADCAST TEXT
NATIONAL WEATHER SERVICE BISMARCK ND
1100 AM CDT WED APR 26 2017

NOTE: "FAIR" INDICATES FEW OR NO CLOUDS BELOW 12,000 FEET WITH NO
SIGNIFICANT WEATHER AND/OR OBSTRUCTIONS TO VISIBILITY.


CITY           SKY/WX    TMP DP  RH WIND       PRES   REMARKS
WILLISTON      FAIR      40  22  48 E7        29.93F
MINOT          FAIR      38  22  52 N18G25    29.91F
MINOT AFB      FAIR      35  21  56 N15G24    29.91F
BISMARCK       CLOUDY    37  24  59 N15G21    29.86F
DICKINSON      PTSUNNY   37  22  54 N14       29.85F
GARRISON         N/A     34  21  59 N13G21    29.88F
HETTINGER ARPT CLOUDY    34  23  64 N13G20    29.87S
JAMESTOWN      CLOUDY    29  24  82 N18       29.80S WCI  16
HAZEN          FAIR      37  23  56 N14G21    29.90F
LINTON           N/A     32  27  80 N17G24    29.85F
MANDAN         PTSUNNY   34  21  60 N18G24    29.86F
STANLEY        FAIR      36  25  64 NE10      29.93F
TIOGA          FAIR      34  25  69 E12       29.93F
WATFORD CITY   FAIR      36  21  55 N7        29.91F
$$

CITY           SKY/WX    TMP DP  RH WIND       PRES   REMARKS
GRAND FORKS    CLOUDY    31  24  75 N22       29.83F WCI  18
GRAND FORKS AF CLOUDY    29  23  77 NE20      29.84S WCI  17
DEVILS LAKE    CLOUDY    30  23  75 NE18      29.86F WCI  18
FARGO          MIX PCPN  29  26  89 N17       29.76S WCI  17
CAVALIER         N/A     30  21  69 NE20      29.88F WCI  18
GRAFTON        CLOUDY    30  25  80 NE16      29.88F WCI  19
GWINNER        FOG       30  28  93 MISG      29.75F VSB 1
LANGDON        CLOUDY    30  25  80 NE22      29.86S WCI  17
ROLLA          PTSUNNY   32  25  74 N23       29.87F WCI  19
$$

CITY           SKY/WX    TMP DP  RH WIND       PRES   REMARKS
ABERDEEN       LGT SNOW  30  26  85 N17       29.78S VSB 3/4 WCI  18
MOBRIDGE       CLOUDY    35  24  64 N21G26    29.80F
BUFFALO          N/A     34  24  67 N8        29.80S
RAPID CITY     CLOUDY    31  24  75 NW13      29.86F
GLASGOW        CLOUDY    40  26  57 SE14      29.86F
SIDNEY         FAIR      38  25  59 E9        29.91
WOLF POINT     CLOUDY    40  25  55 SE7       29.90F
GLENDIVE       CLOUDY    37  23  56 VRB6      29.89F
MILES CITY     CLOUDY    36  25  64 S8        29.86F
BAKER          CLOUDY    33  22  63 E6        29.87F
$$

CITY           SKY/WX    TMP DP  RH WIND       PRES   REMARKS
BILLINGS       LGT RAIN  36  32  85 E3        29.79F
GREAT FALLS    CLOUDY    44  37  76 SW17      29.69F
REGINA         CLOUDY    34  19  55 SE10      29.95F
ESTEVAN        MOSUNNY   36  21  55 E8        29.95F
$$




USA.gov is the U.S. government's official web portal to all federal, state and local government web resources and services.